Showing default

COSMOS 2213, 22184

Orbit data source: Space-Track

COSMOS 2213, 22184 is a payload satellite owned by VKS (CIS) in LEO that was launched on Tue, 20 Oct 1992 UTC via a TSIKLON-3 launch vehicle from the Plesetsk Missile And Space Complex (PKMTR). Payload-class satellites include a variety of spacecraft equipped with specific instruments for various scientific and technological missions. These include communications satellites like Starlink; space stations such as the ISS; scientific satellites like the Hubble; Earth observation satellites from companies like Planet Labs, Umbra, and HawkEye 360; GPS; miniature CubeSats for education and research; and military/defense satellites.

Loading next visibility...
Identifier
22184, 1992-068C
Orbit
LEO
Country
Flag of CISCIS
Related business
Manufacturer
NPO PM
Mission
Defense Communications
Bus & Motor
STRELA-3, Unknown motor
Mass
225 kg wet, 225 kg dry
Launch date (UTC)
1992-10-20 (33 years ago)
Launch vehicle
TSIKLON-3
Launch site
Plesetsk Missile And Space Complex (PKMTR)
Object type
Payload
Rocket body
Debris
Shape & HBR
Cyl, 0.8 m
Radar Cross Section
1.257 m², Large (>1 m²)

Expand to show TLE details & history
Last TLE update: 11 hours ago

TLE from 11 hours ago
0 COSMOS 2213
1 22184U 92068C   26036.07921268  .00000022  00000-0  61979-4 0  9994
2 22184  82.5959  71.1271 0004146  78.5311 309.9293 12.62608705534280
Epoch: 2026-02-05T01:54Z
TLE epoch observation values (Epoch: 2026-02-05T01:54:03.975Z)
Latitude
28.20557°
Longitude
-88.64936°
Altitude
1,413.458 km
Speed
7.157 km/s
True Right ascension
05h 00m 24s
True Declination
28° 04' 29"
Sunlit
Object was in daylight at epoch
Visualization orbit readout
Latitude
Unknown
Longitude
Unknown
Altitude
Unknown
Speed
Unknown
Apparent Right ascension
Unknown
Apparent Declination
Unknown
Sunlit
N/A
Visualization observer readout
Local Sidereal Time
15:20:48
Azimuth
Unknown
Elevation
Unknown
Doppler factor
Unknown
Orbital elements
Apogee altitude
1,412.744 km
Perigee altitude
1,406.286 km
Semi-major axis
7,787.652 km
Eccentricity
0.00041
Inclination
82.5959°
RAAN
71.1271°
Arg. of periapsis
78.5311°
True anomaly
309.89286°
Mean anomaly
309.9293°
Eccentric anomaly
309.91108°
Mean motion
3.15815 °/min
Orbital period
113.99 mins
BSTAR
0.000061979
Loading maneuver chart data...
Computing Atmospheric mass density...
Loading historical data...
Loading historical data...
Loading historical data...
Loading historical data...
Loading historical data...
Loading historical data...
Loading historical data...

Documentation

Showing up to 5 results
|